Flight Information

DEPARTURE
RIVERSIDE, CA
Elevation:
1536
Runways:
12/30 - 3061x100 - ASPH
14/32 - 13302x200 - CONC-G
ATIS:
134.75
Clearance Delivery:
121.75
Ground:
121.75
Tower:
127.65
DESTINATION
,
Elevation:
TPA:
1000 (est.)


6740.7 NM74° True-14° Var60° HDG

Flight Plan:
(click to file on line)

1. Type
2. Aircraft Identification
3. Aircraft Type / Special Equipment
4. True Airspeed
kts
5. Departure Airport
(ICAO code)
6. Arriving Airport
(ICAO code)
7. Cruising Altitude
ft
8. Alternate Airport
(ICAO code)
9. Route of Flight
10. Remarks


00:00:00 Departure ATIS: Destination ATIS:

Clearance Limit:
Route:
Altitude: Expect in minutes
Frequency:
Transponder: (7500 Hijack / 7600 Lost Comms / 7700 Emergency)


KRIV 282158Z AUTO 08011G19KT 10SM CLR 19/M18 A3023 RMK AO2 PK WND 10026/2059 SLP231 T01881178
Time: 2022-01-28T21:58:00Z
1643410559
Winds: 80 @ 11 kts
Gusting:19 kts
Visibility: 10.0 sm
Clouds (AGL): CLR
Temperature: 18.8 C
Dew Point: -17.8 C
Pressure: 30.230314 in Hgbr


Notes:

Data extracted from FAA Digital Chart Supplement. Effective: 0901Z Thursday, DEC 2, 2021 to 0901Z Thursday, JAN 27, 2022
Current ATIS data is provided courtisy of PilotEdge.